sat.trackr.live / text

‹ back to catalog

STARLINK-1493

NORAD 45759 · 2020-038AF

PAYLOAD ACTIVE UNKNOWN

§ Identity

Operator
Country
US
Launch date
2020-06-13
Launch site
AFETR
Launch vehicle
Mass (kg)
RCS (m²)

Purposes: comms

External: N2YO · Heavens-Above · Gunter

§ Orbital elements

Epoch: 2026-09-09T04:05:34.769184Z

Period
91.40 min
Inclination
53.0407°
Eccentricity
0.0004250
Mean motion
15.75458805 rev/d
Perigee alt
340.5 km
Apogee alt
346.2 km
Semi-major
6,721.5 km
B*
4.5134e-4
RAAN
25.3404°
Arg perigee
326.4861°
Mean anomaly
33.5888°
Rev number
34,535

§ Raw data

STARLINK-14931 45759U 20038AF  26252.17054131  .00069825  00000+0  45134-3 0  99912 45759  53.0407  25.3404 0004250 326.4861  33.5888 15.75458805345353

JSON: /api/v1/satellites/45759 · /tle

For live sub-satellite position, see the globe view (requires WebGL).

§ Visibility from observer

Set your observer location to see the next 7 days of passes ≥ 10°. The values pass through the URL so the page stays shareable.

No JS? Fill the form by hand. The geolocation button needs JavaScript.